Regional Weather Roundup
Issued by NWS

Home | Current Version | Previous Version | Graphics & Text | Print | Product List | Glossary On
Versions: 1 2 3 4 5 6 7 8 9 10 11 12 13 14 15 16 17 18 19 20 21 22 23 24 25 26 27 28 29 30 31 32 33 34 35 36 37 38 39 40 41 42 43 44 45 46 47 48 49 50
711
ASUS43 KIND 202309
RWRIN

WEATHER ROUNDUP FOR INDIANA
NATIONAL WEATHER SERVICE INDIANAPOLIS IN
700 PM EDT FRI APR 20 2018

NOTE: "FAIR" INDICATES FEW OR NO CLOUDS BELOW 12,000 FEET WITH NO
SIGNIFICANT WEATHER AND/OR OBSTRUCTIONS TO VISIBILITY.

* - STATION DOES NOT REPORT WEATHER SUCH AS PRECIPITATION OR FOG.

+ - STATION NOT QUALITY CONTROLLED BY THE NATIONAL WEATHER SERVICE.
    USE DATA WITH CAUTION...ESPECIALLY DEWPOINT AND RELATIVE
    HUMIDITY OBSERVATIONS.

INZ001>003-010>013-019-020-210000-
NORTHWEST INDIANA

CITY           SKY/WX    TMP DP  RH WIND       PRES   REMARKS
GARY /AIRPORT/ MOSUNNY   54   7  15 E6        30.46F
KNOX *+        FAIR      55  18  22 N12       30.43F
LA PORTE +     FAIR      53  18  25 N9        30.45F
MICHIGAN CITY+ FAIR      50  16  25 N8        30.47F
MONTICELLO +   FAIR      59  11  15 NW3       30.42S
RENSSELAER +   FAIR      59  -9   6 N9        30.42F
VALPARAISO     FAIR      57  13  17 N10       30.44F

$$

LMZ046-743>745-210000-
SOUTHERN LAKE MICHIGAN

STATION/POSITION TIME  TEMP    WIND        PRES    WAVE
                       AIR SEA DIR/SP/G            HT
                 (UTC) (F)     (DEG/KT/KT) (MB)    (FT)
BURNS HARBOR     2303   45      70/  6/  8 1031.5
MICHIGAN CITY    2240   41      30/  4/  5   N/A

$$

INZ004-005-014>016-021>024-210000-
NORTH CENTRAL INDIANA

CITY           SKY/WX    TMP DP  RH WIND       PRES   REMARKS
ELKHART        FAIR      59  23  25 N8        30.43S
GOSHEN         FAIR      59  23  25 CALM      30.42S
LOGANSPORT +   FAIR      57  21  24 CALM      30.43S
PERU/GRISSOM   MOSUNNY   57  23  26 N3        30.42F
ROCHESTER +    FAIR      61  19  20 NE6       30.43F
SOUTH BEND     FAIR      53  16  23 NW13      30.46S
WARSAW +       FAIR      55  23  28 E3        30.43S

$$

INZ006>009-017-018-025>027-210000-
NORTHEAST INDIANA

CITY           SKY/WX    TMP DP  RH WIND       PRES   REMARKS
ANGOLA *+      FAIR      57  16  19 CALM      30.42S
AUBURN +       FAIR      57  19  23 N3        30.43S
FORT WAYNE     FAIR      59  17  19 CALM      30.43S
HUNTINGTON +   FAIR      57  15  19 N3        30.42S
KENDALLVILLE +   N/A     56   6  13 CALM      30.43S

$$

INZ028-029-035-036-043>045-051>053-210000-
WEST CENTRAL INDIANA

CITY           SKY/WX    TMP DP  RH WIND       PRES   REMARKS
CRAWFORDSVL +  FAIR      56  23  28 NE8       30.41F
GREENCASTLE +  FAIR      55  25  30 CALM      30.41F
LAFAYETTE      FAIR      58  19  22 NE6       30.41F
TERRE HAUTE    FAIR      60  26  27 NE7       30.40F

$$

INZ030>032-037>040-046>048-054>057-064-065-210000-
CENTRAL INDIANA

CITY           SKY/WX    TMP DP  RH WIND       PRES   REMARKS
COLUMBUS       SUNNY     63 N/A N/A NE7       30.41F
FISHERS *+     FAIR      55  30  38 NE7       30.42S
FRANKFORT +    FAIR      60  21  21 NE5       30.43F
GREENWOOD *+   FAIR      56  22  26 E3        30.42S
INDIANAPOLIS   FAIR      58  19  22 NE6       30.41F
-EAGLE CREEK   FAIR      59  24  26 E6        30.40F
KOKOMO +       FAIR      58  24  27 E8        30.43F
MARION +       FAIR      57  19  23 CALM      30.43S
MT COMFORT *+  FAIR      55  30  38 NE6       30.42F
SHELBYVILLE    FAIR      60  20  21 NE6       30.41S
ZIONSVILLE +   FAIR      56  24  29 NE8       30.42F

$$

INZ033-034-041-042-049-050-058-059-210000-
EAST CENTRAL INDIANA

CITY           SKY/WX    TMP DP  RH WIND       PRES   REMARKS
MUNCIE         FAIR      59  22  24 NE3       30.42S
RICHMOND +     FAIR      54  25  32 NE8       30.42S

$$

INZ060-061-067>069-081>083-085>088-210000-
SOUTHWEST INDIANA

CITY           SKY/WX    TMP DP  RH WIND       PRES   REMARKS
EVANSVILLE     FAIR      63  24  22 E6        30.37F
HUNTINGBURG +  FAIR      61  29  29 N10       30.37F
WASHINGTON +   FAIR      63  10  13 CALM      30.38S

$$

INZ062-063-066-070>080-084-089>092-210000-
SOUTH CENTRAL AND SOUTHEAST INDIANA

CITY           SKY/WX    TMP DP  RH WIND       PRES   REMARKS
BATESVILLE +   SUNNY     57  25  28 MISG      30.40F
BEDFORD +      FAIR      61  10  13 E7        30.38F
BLOOMINGTON    FAIR      60  21  22 NE9       30.39S
FRENCH LICK *+ FAIR      59  12  15 NE5       30.39S
MADISON *+     FAIR      61  18  18 E5        30.40F
NORTH VERNON + FAIR      57  23  26 NE9       30.40
SEYMOUR +      FAIR      63  32  31 N7        30.39F

$$





USA.gov is the U.S. government's official web portal to all federal, state and local government web resources and services.